Starlink 4436

operational
NORAD ID: 53479 Int'l Des: 2022-099 Owner: SPXS Country: US Constellation: starlink
LEOCIRCULARRETROGRADESSO

About Starlink 4436

Description loading...

Live Position

Loading 3D Globe...

Upcoming Passes

Altitude History

Altitude vs Time

uPlot chart will show altitude changes over time

Two-Line Element Set

1 53479U 22099Q 25305.57099010 -.00000069 00000-0 -54070-6 0 9995
2 53479 97.6025 65.0019 0001170 90.8863 269.2498 15.05647469176778
Epoch: Nov 1, 2025 • Age: 18 hours

Current Status

Altitude 551.7 km
Velocity 7.59 km/s
Sub-Earth Point 9.48°N, 85.13°E
Launch Date Aug 12, 2022
Age 3.2 years
Type internet

Technical Details

Classification Payload
Mass 300.00 kg
Dry Mass 275.00 kg
Total Mass 300.00 kg
Length 0.20 m
Diameter 2.80 m
Span 9.00 m
Shape Box + pan
Manufacturer SPXS
Bus Type Starlink
Phase Status In Orbit
Owner/State SPXS/US

Large Constellations

Loading constellations...